Theta_e
320 317 317 331 331 330 330 332 333 333 335 336 338 338 338 338 338 336 334 327 323 331 332 332 334 335 336 335 331 334 326 327 333
321 317 317 333 333 329 329 330 330 332 334 336 338 338 337 335 334 333 333 334 332 321 331 332 334 335 336 335 335 334 334 326 326
323 317 316 331 337 330 330 330 328 328 333 336 337 337 336 334 332 333 334 334 338 334 330 330 331 332 334 335 335 335 334 333 328
324 317 316 333 331 328 330 328 325 325 330 335 336 336 335 334 332 333 333 332 333 330 332 331 331 331 330 333 334 334 333 332 333
326 317 316 331 328 329 331 329 328 327 329 333 334 334 332 332 328 329 330 333 333 328 330 330 330 331 331 331 330 326 328 330 332
328 318 314 329 327 329 329 332 327 324 322 321 328 332 330 328 324 322 327 323 318 316 313 314 316 317 323 327 329 328 327 322 322
329 320 313 327 328 326 327 326 324 318 316 317 320 325 325 320 313 320 321 320 318 312 311 311 310 308 307 307 307 308 311 318 322
332 322 312 324 327 326 325 323 319 316 312 315 321 320 313 310 310 319 317 318 315 311 308 307 306 306 306 306 306 305 305 305 305
333 324 312 317 327 323 322 321 321 309 309 310 311 309 308 310 310 313 315 312 312 309 306 306 305 305 305 305 305 305 305 305 305
333 321 311 312 324 323 320 322 321 309 309 309 308 309 309 309 310 310 309 309 310 309 308 306 305 305 305 305 305 305 305 305 305
329 319 309 313 320 321 321 322 321 317 310 310 309 309 309 309 309 309 310 309 308 308 307 306 306 306 306 306 306 306 306 306 306
325 317 307 313 322 323 323 323 322 318 312 310 310 310 310 309 309 309 308 308 307 306 306 306 306 306 307 307 307 308 308 307 307
330 316 309 320 324 323 323 324 322 319 316 312 310 310 310 309 309 308 308 307 307 307 306 306 306 306 307 307 308 308 308 308 308
330 315 313 322 323 323 323 323 322 319 317 313 311 310 310 309 308 307 307 307 307 307 307 306 306 306 306 307 307 307 308 308 308
322 314 318 321 322 323 323 322 322 319 316 313 312 311 310 309 308 308 308 307 307 307 307 307 307 306 306 307 307 307 307 308 309
322 314 315 317 318 321 322 321 322 318 315 313 313 312 312 311 311 310 310 309 308 308 308 308 308 307 307 307 307 308 307 309 309
322 314 314 312 316 321 318 319 321 317 315 313 313 314 313 311 311 311 311 310 310 310 309 309 308 308 308 308 308 308 308 308 308
327 324 322 320 313 319 317 317 317 316 315 314 312 313 312 312 312 311 310 311 310 310 310 310 309 309 308 308 308 308 308 308 308
326 325 321 319 317 317 316 314 314 314 314 313 311 311 310 311 311 311 311 311 311 311 311 310 310 309 309 309 308 308 308 307 307
328 325 323 317 313 313 314 313 312 312 312 311 311 311 312 312 312 311 311 311 311 311 310 310 310 309 309 308 307 306 306 306 306
Wind_Speed
13 13 16 18 15 17 15 16 15 15 16 16 20 22 23 25 26 25 24 23 21 22 25 24 25 26 28 27 26 29 29 29 31
13 12 14 19 16 18 15 14 15 15 15 18 20 21 22 25 26 26 25 24 22 20 22 23 25 26 28 28 28 28 30 28 28
13 12 12 14 16 19 14 15 14 14 15 18 21 22 22 22 23 24 24 22 25 25 23 22 24 24 26 25 27 27 27 30 29
13 12 12 15 14 16 13 12 16 18 15 16 18 19 18 19 21 20 19 18 21 21 24 24 24 26 24 23 25 26 27 27 30
13 12 13 15 15 16 14 13 17 17 16 14 13 14 14 13 13 15 15 21 21 19 20 22 22 25 26 27 25 23 25 26 26
15 12 14 17 17 17 14 15 15 15 13 12 12 11 8 6 9 15 18 18 18 18 20 22 23 23 23 24 25 26 27 25 24
15 12 14 19 15 16 14 12 10 7 9 13 13 11 9 10 15 20 20 21 22 22 22 22 23 24 25 25 25 25 24 23 24
17 14 16 23 19 19 15 12 8 8 11 14 13 12 14 19 22 22 21 20 20 20 21 21 22 23 23 24 24 24 24 25 25
19 15 17 23 20 18 15 14 12 14 16 16 17 19 20 20 21 20 19 19 19 19 20 20 21 22 23 23 24 24 24 24 23
19 17 19 24 22 19 18 15 14 16 18 19 19 20 19 19 18 19 18 18 18 19 19 20 21 21 22 23 23 24 24 23 23
19 19 22 26 22 20 18 17 15 15 17 18 17 17 17 16 17 17 17 17 17 17 17 18 19 20 21 22 22 23 22 23 23
19 20 24 27 26 21 19 18 16 16 17 16 15 14 14 15 15 15 15 15 15 15 16 16 17 18 19 19 19 19 20 21 21
20 22 28 30 27 22 20 21 19 17 16 16 16 14 13 14 13 13 13 12 13 13 13 13 14 14 15 15 15 16 17 18 19
18 25 32 30 26 23 21 23 19 19 18 16 16 14 13 12 11 11 10 9 9 9 9 9 10 10 10 11 12 13 14 15 16
21 27 33 30 27 24 22 21 22 19 19 18 16 15 12 11 9 8 8 6 6 6 5 5 5 6 6 7 9 10 10 11 12
23 29 30 28 27 26 23 25 24 23 20 20 19 16 13 11 10 8 7 6 4 3 2 1 1 1 2 4 5 7 7 9 11
24 27 24 24 25 26 23 26 29 25 23 21 19 14 13 13 12 11 8 7 5 3 2 2 1 2 2 2 4 6 7 9 11
24 25 24 20 24 26 25 25 26 27 26 20 11 8 8 17 15 13 11 9 7 6 5 4 4 4 4 4 6 7 8 10 12
31 23 28 24 19 25 25 23 22 21 23 22 17 7 6 9 8 16 14 13 10 9 9 9 8 8 7 8 8 10 11 13 13
32 26 28 26 24 25 24 24 23 22 20 24 23 14 9 7 4 7 15 14 12 12 14 14 14 12 12 12 12 13 14 15 17
Wind_Direction
133 127 131 132 137 135 132 123 110 108 107 109 106 99 98 97 92 86 76 72 84 86 83 78 78 74 70 65 64 65 65 67 69
138 133 133 144 138 136 135 132 123 112 115 114 114 112 112 105 97 89 83 77 70 83 91 88 83 80 75 70 66 62 63 65 69
146 141 140 133 135 133 142 139 131 126 119 120 117 119 116 108 97 92 87 84 82 76 77 81 79 82 79 75 72 65 65 64 66
152 147 146 142 138 133 147 140 128 130 135 127 125 124 117 111 104 101 93 90 87 89 87 83 79 77 79 84 79 74 70 69 66
158 155 150 147 135 142 148 140 130 132 138 141 138 134 126 118 112 109 104 95 89 96 85 85 85 82 78 75 76 81 79 78 72
165 160 158 153 151 147 154 144 137 137 138 149 160 164 155 143 131 113 103 98 95 90 85 83 82 83 86 82 78 76 73 71 75
167 166 166 157 161 155 161 148 136 134 141 144 152 162 156 146 122 106 101 96 95 94 90 85 82 80 78 75 72 71 70 71 71
176 175 174 161 170 163 159 140 129 129 134 138 144 146 141 128 114 107 105 100 96 93 89 86 84 82 81 79 75 72 69 69 68
181 182 182 175 167 165 152 139 122 122 125 131 135 135 129 122 115 111 107 103 98 93 90 88 84 82 80 78 76 75 73 69 66
183 182 187 182 172 165 157 145 125 125 126 129 133 131 127 124 119 115 112 107 102 97 95 92 89 85 82 80 78 74 72 71 71
185 183 188 184 174 167 161 153 135 130 134 132 133 132 130 128 125 121 116 111 107 103 98 93 90 87 82 78 75 72 68 65 64
185 185 187 181 173 171 168 162 150 138 137 137 136 135 134 131 128 124 119 116 110 104 99 96 92 88 84 79 74 69 65 59 57
187 187 183 179 177 178 177 173 159 148 140 139 142 142 140 135 130 122 117 114 110 106 101 98 92 86 82 75 68 62 58 52 47
193 185 183 183 184 180 177 176 173 159 148 144 144 146 145 141 136 130 124 118 108 101 99 98 94 86 75 69 62 54 49 45 39
184 183 185 187 191 190 187 185 179 170 158 151 147 148 150 151 151 145 140 134 124 111 104 91 84 76 65 55 46 38 36 33 28
183 184 189 197 199 198 192 188 182 175 169 159 154 156 160 165 168 166 163 162 159 147 144 130 97 80 45 21 24 17 11 13 9
176 185 189 201 200 197 191 189 183 184 179 176 163 167 185 189 188 187 182 180 188 202 208 222 250 267 278 321 341 349 348 346 346
188 182 189 198 204 202 196 193 195 190 186 188 179 172 202 205 210 207 203 203 208 223 231 242 245 249 264 287 314 321 320 323 330
193 186 202 202 206 208 204 204 210 213 202 195 203 209 195 184 208 218 214 218 226 242 251 249 254 251 256 268 281 292 301 303 313
198 200 202 208 208 211 210 211 215 221 227 214 207 207 191 182 198 217 216 222 231 244 260 260 256 258 260 267 273 283 293 300 302